Preview of NWS' New Version of Forecast
This preview is not operational and should not be used for support decisions.

Regional Weather Roundup (RWR)

Issued by National Weather Service (NWS)

                            
000
ASUS43 KDMX 192101
RWRIA 

WEATHER ROUNDUP FOR IOWA
NATIONAL WEATHER SERVICE DES MOINES IA
400 PM CDT FRI APR 19 2019

NOTE: "FAIR" INDICATES FEW OR NO CLOUDS BELOW 12,000 FEET WITH NO
SIGNIFICANT WEATHER AND/OR OBSTRUCTIONS TO VISIBILITY.

* - THESE STATIONS ARE NOT NWS STATIONS...THUS NOT UNDER NWS
QUALITY CONTROL.  THEY ALSO DO NOT REPORT WEATHER SUCH 
AS PRECIPITATION OR FOG.  

IAZ001>003-012>014-020>022-031>034-043>046-192200-
   NORTHWEST IOWA
  
CITY           SKY/WX    TMP DP  RH WIND       PRES   REMARKS
CARROLL *      SUNNY     64  30  27 N10G20    29.99F                  
CHEROKEE *     SUNNY     62  31  30 CALM      30.00F                  
DENISON *      SUNNY     63  28  27 VRB6G13   30.01F                  
LE MARS *      SUNNY     61  30  31 CALM      30.00F                  
SHELDON *      SUNNY     59  32  36 W7        29.98F                  
SIOUX CITY     SUNNY     65  33  30 CALM      30.00F                  
SPENCER        SUNNY     64  31  28 NW14G20   30.00F                  
STORM LAKE *   SUNNY     61  28  29 NW9G20    29.97F                  
$$
 
IAZ055>058-069>071-079>083-090>094-192200-
   SOUTHWEST IOWA
  
CITY           SKY/WX    TMP DP  RH WIND       PRES   REMARKS
ATLANTIC *     SUNNY     63  32  31 N9G21     29.98F                  
AUDUBON *      SUNNY     63  30  29 CALM      30.00F                  
CLARINDA *     SUNNY     64  27  24 N13G22    30.01F                  
COUNCIL BLFS * SUNNY     63  27  25 N14       30.01F                  
CRESTON *      SUNNY     61  28  29 N13G22    29.98F                  
HARLAN  *      SUNNY     63  27  25 NW8G17    30.00F                  
LAMONI         MOSUNNY   61  32  33 NW21G30   29.96F                  
RED OAK *      SUNNY     66  30  26 NW12G20   30.00F                  
SHENANDOAH *   SUNNY     64  28  25 N9G22     29.99F HAZE             
$$
 
IAZ047>049-059>061-072>074-084-192200-
   CENTRAL IOWA
  
CITY           SKY/WX    TMP DP  RH WIND       PRES   REMARKS
AMES           SUNNY     63  31  30 NW9G20    29.97F                  
ANKENY *         N/A    N/A N/A N/A MISG      29.98F                  
BOONE *        SUNNY     63  30  29 NW9G18    29.97F                  
CHARITON *     SUNNY     61  30  31 N20G25    29.97F                  
DES MOINES     MOSUNNY   63  27  25 NW15      29.97F                  
GRINNELL*      SUNNY     61  27  26 N20G29    29.97F                  
KNOXVILLE *    SUNNY     61  23  23 N13G21    29.96F                  
MARSHALLTOWN   SUNNY     62  30  29 N13G29    29.97F                  
NEWTON *       SUNNY     61  27  27 N15G25    29.97F                  
PELLA *        SUNNY     63  22  20 N15G22    29.98F                  
PERRY *        FAIR      63  26  24 N12G18    29.98F                  
$$
 
IAZ004>006-015-016-023>025-035-036-192200-
   NORTH CENTRAL IOWA
  
CITY           SKY/WX    TMP DP  RH WIND       PRES   REMARKS
ALGONA *       SUNNY     61  28  29 N8G14     29.98F                  
CLARION *      SUNNY     63  32  31 NW15      29.98F                  
ESTHERVILLE    SUNNY     60  30  32 NW10      29.99F                  
FORT DODGE *   SUNNY     62  32  32 N10       29.99F                  
MASON CITY     SUNNY     61  34  36 NW10G18   29.99F                  
FOREST CITY *  FAIR      61  30  31 N3        29.99F                  
IOWA FALLS *   FAIR      61  31  32 N9        29.99F                  
$$

IAZ007>011-017>019-026>030-037>042-050>054-066-192200-
   NORTHEAST IOWA
  
CITY           SKY/WX    TMP DP  RH WIND       PRES   REMARKS
CEDAR RAPIDS   FAIR      61  24  24 N24G30    29.92F                  
CHARLES CITY * FAIR      61  30  31 N10G21    29.97F                  
CLINTON *      FAIR      61  27  27 N24       29.88F                  
DECORAH *      FAIR      59  25  27 N14G23    29.95F                  
DUBUQUE        FAIR      60  23  24 N15G25    29.91F                  
MONTICELLO *   FAIR      61  23  23 N14G22    29.92F                  
OELWEIN *      FAIR      59  27  29 N16G25    29.96F                  
WATERLOO       FAIR      63  28  26 N16G29    29.96F                  
$$
 
IAZ064-065-067-068-078-192200-
   EAST CENTRAL IOWA
  
CITY           SKY/WX    TMP DP  RH WIND       PRES   REMARKS
DAVENPORT      FAIR      62  22  21 N23G35    29.90F                  
IOWA CITY      FAIR      62  21  20 N20G26    29.93F                  
MT. PLEASANT * SUNNY     63  28  27 N25G33    29.90F                  
MUSCATINE *    FAIR      63  21  20 N17G36    29.90S                  
QUAD CITIES    FAIR      63  24  22 N17G32    29.86F                  
$$
 
IAZ062-063-075>077-085>089-095>099-192200-
   SOUTHEAST IOWA
  
CITY           SKY/WX    TMP DP  RH WIND       PRES   REMARKS
BURLINGTON     SUNNY     61  27  27 N23G32    29.87F                  
FAIRFIELD *    SUNNY     63  23  22 N23G30    29.91F                  
FORT MADISON * SUNNY     63  28  27 N21G28    29.88F                  
KEOKUK *       SUNNY     61  25  25 N26G37    29.87F                  
OSKALOOSA *    FAIR      64  22  20 N24G31    29.94F                  
CENTERVILLE *  FAIR      59  27  29 NW17G30   29.96F                  
OTTUMWA        SUNNY     63  26  24 N21G32    29.94F                  
WASHINGTON *   SUNNY     63  21  20 N23G31    29.92F                  
$$

ABBREVIATIONS USED IN REMARKS
   TC - TEMPERATURES IN CELSIUS
  WCI - WIND CHILL INDEX
   HX - HEAT INDEX
  VSB - VISIBILITY  
$$